Time,TemperatureF,DewpointF,PressureIn,WindDirection,WindDirectionDegrees,WindSpeedMPH,WindSpeedGustMPH,Humidity,HourlyPrecipIn,Conditions,Clouds,dailyrainin,SolarRadiationWatts/m^2,SoftwareType,DateUTC
2013-12-06 00:01:00,12.0,8.0,-100.00,North,10,2.0,9.0,82,0.00,,,-99.99,0.000000,,2013-12-06 08:01:00,
2013-12-06 00:42:00,13.0,8.0,-100.00,NNE,28,2.0,10.0,81,0.00,,,-99.99,0.000000,,2013-12-06 08:42:00,
2013-12-06 00:52:00,13.0,8.0,-100.00,NNE,28,2.0,10.0,81,0.00,,,-99.99,0.000000,,2013-12-06 08:52:00,
2013-12-06 01:02:00,13.0,8.0,-100.00,NNE,28,2.0,10.0,81,0.00,,,-99.99,0.000000,,2013-12-06 09:02:00,
2013-12-06 01:43:00,13.0,9.0,-100.00,SSW,196,1.0,8.0,82,0.00,,,0.00,0.000000,,2013-12-06 09:43:00,
2013-12-06 01:54:00,13.0,9.0,-100.00,SSW,196,1.0,8.0,82,0.00,,,0.00,0.000000,,2013-12-06 09:54:00,
2013-12-06 02:03:00,13.0,9.0,-100.00,SSW,196,1.0,8.0,82,0.00,,,0.00,0.000000,,2013-12-06 10:03:00,
2013-12-06 02:43:00,13.0,7.0,-100.00,North,11,1.0,8.0,78,0.00,,,0.00,0.000000,,2013-12-06 10:43:00,
2013-12-06 02:52:00,13.0,7.0,-100.00,North,11,1.0,8.0,78,0.00,,,0.00,0.000000,,2013-12-06 10:52:00,
2013-12-06 03:02:00,13.0,7.0,-100.00,North,11,1.0,8.0,78,0.00,,,0.00,0.000000,,2013-12-06 11:02:00,
2013-12-06 03:42:00,12.0,7.0,-100.00,North,358,2.0,10.0,79,0.00,,,0.00,0.000000,,2013-12-06 11:42:00,
2013-12-06 03:53:00,12.0,7.0,-100.00,North,358,2.0,10.0,79,0.00,,,0.00,0.000000,,2013-12-06 11:53:00,
2013-12-06 04:02:00,12.0,7.0,-100.00,North,358,2.0,10.0,79,0.00,,,0.00,0.000000,,2013-12-06 12:02:00,
2013-12-06 04:42:00,12.0,7.0,-100.00,North,4,2.0,11.0,80,0.00,,,0.00,0.000000,,2013-12-06 12:42:00,
2013-12-06 04:52:00,12.0,7.0,-100.00,North,4,2.0,11.0,80,0.00,,,0.00,0.000000,,2013-12-06 12:52:00,
2013-12-06 05:01:00,12.0,7.0,-100.00,North,4,2.0,11.0,80,0.00,,,0.00,0.000000,,2013-12-06 13:01:00,
2013-12-06 05:42:00,12.0,7.0,-100.00,East,98,1.0,8.0,81,0.00,,,0.00,0.000000,,2013-12-06 13:42:00,
2013-12-06 05:52:00,12.0,7.0,-100.00,East,98,1.0,8.0,81,0.00,,,0.00,0.000000,,2013-12-06 13:52:00,
2013-12-06 06:02:00,12.0,7.0,-100.00,East,98,1.0,8.0,81,0.00,,,0.00,0.000000,,2013-12-06 14:02:00,
2013-12-06 06:42:00,12.0,7.0,-100.00,SSW,196,2.0,15.0,81,0.00,,,0.00,0.000000,,2013-12-06 14:42:00,
2013-12-06 06:53:00,12.0,7.0,-100.00,SSW,196,2.0,15.0,81,0.00,,,0.00,0.000000,,2013-12-06 14:53:00,
2013-12-06 07:02:00,12.0,7.0,-100.00,SSW,196,2.0,15.0,81,0.00,,,0.00,0.000000,,2013-12-06 15:02:00,
2013-12-06 07:44:00,12.0,7.0,-100.00,East,91,1.0,10.0,81,0.00,,,0.00,0.000000,,2013-12-06 15:44:00,
2013-12-06 07:54:00,12.0,7.0,-100.00,East,91,1.0,10.0,81,0.00,,,0.00,0.000000,,2013-12-06 15:54:00,
2013-12-06 08:03:00,12.0,7.0,-100.00,East,91,1.0,10.0,81,0.00,,,0.00,0.000000,,2013-12-06 16:03:00,
2013-12-06 08:43:00,12.0,7.0,-100.00,ESE,120,1.0,7.0,79,0.00,,,0.00,0.000000,,2013-12-06 16:43:00,
2013-12-06 08:53:00,12.0,7.0,-100.00,ESE,120,1.0,7.0,79,0.00,,,0.00,0.000000,,2013-12-06 16:53:00,
2013-12-06 09:02:00,12.0,7.0,-100.00,ESE,120,1.0,7.0,79,0.00,,,0.00,0.000000,,2013-12-06 17:02:00,
2013-12-06 09:43:00,14.0,8.0,-100.00,NNW,348,1.0,10.0,77,0.00,,,0.00,5.000000,,2013-12-06 17:43:00,
2013-12-06 09:52:00,14.0,8.0,-100.00,NNW,348,1.0,10.0,77,0.00,,,0.00,5.000000,,2013-12-06 17:52:00,
2013-12-06 10:02:00,14.0,8.0,-100.00,NNW,348,1.0,10.0,77,0.00,,,0.00,5.000000,,2013-12-06 18:02:00,
2013-12-06 10:42:00,16.0,8.0,-100.00,NNE,18,2.0,11.0,71,0.00,,,0.00,12.000000,,2013-12-06 18:42:00,
2013-12-06 10:52:00,16.0,8.0,-100.00,NNE,18,2.0,11.0,71,0.00,,,0.00,12.000000,,2013-12-06 18:52:00,
2013-12-06 11:02:00,16.0,8.0,-100.00,NNE,18,2.0,11.0,71,0.00,,,0.00,12.000000,,2013-12-06 19:02:00,
2013-12-06 11:42:00,18.0,9.0,-100.00,WNW,290,2.0,14.0,68,0.00,,,0.00,16.000000,,2013-12-06 19:42:00,
2013-12-06 11:52:00,18.0,9.0,-100.00,WNW,290,2.0,14.0,68,0.00,,,0.00,16.000000,,2013-12-06 19:52:00,
2013-12-06 12:02:00,18.0,9.0,-100.00,WNW,290,2.0,14.0,68,0.00,,,0.00,16.000000,,2013-12-06 20:02:00,
2013-12-06 12:42:00,20.0,11.0,-100.00,NW,309,3.0,12.0,66,0.00,,,0.00,21.000000,,2013-12-06 20:42:00,
2013-12-06 12:52:00,20.0,11.0,-100.00,NW,309,3.0,12.0,66,0.00,,,0.00,21.000000,,2013-12-06 20:52:00,
2013-12-06 13:02:00,20.0,11.0,-100.00,NW,309,3.0,12.0,66,0.00,,,0.00,21.000000,,2013-12-06 21:02:00,
2013-12-06 13:43:00,19.0,10.0,-100.00,SW,232,2.0,13.0,67,0.00,,,0.00,21.000000,,2013-12-06 21:43:00,
2013-12-06 13:54:00,19.0,10.0,-100.00,SW,232,2.0,13.0,67,0.00,,,0.00,21.000000,,2013-12-06 21:54:00,
2013-12-06 14:03:00,19.0,10.0,-100.00,SW,232,2.0,13.0,67,0.00,,,0.00,21.000000,,2013-12-06 22:03:00,
2013-12-06 14:42:00,17.0,9.0,-100.00,South,173,2.0,13.0,70,0.00,,,0.00,14.000000,,2013-12-06 22:42:00,
2013-12-06 14:53:00,17.0,9.0,-100.00,South,173,2.0,13.0,70,0.00,,,0.00,14.000000,,2013-12-06 22:53:00,
2013-12-06 15:02:00,17.0,9.0,-100.00,South,173,2.0,13.0,70,0.00,,,0.00,14.000000,,2013-12-06 23:02:00,
2013-12-06 15:42:00,16.0,8.0,-100.00,ENE,65,2.0,11.0,70,0.00,,,0.00,12.000000,,2013-12-06 23:42:00,
2013-12-06 15:52:00,16.0,8.0,-100.00,ENE,65,2.0,11.0,70,0.00,,,0.00,12.000000,,2013-12-06 23:52:00,
2013-12-06 16:02:00,16.0,8.0,-100.00,ENE,65,2.0,11.0,70,0.00,,,0.00,12.000000,,2013-12-07 00:02:00,
2013-12-06 16:42:00,14.0,7.0,-100.00,ENE,65,2.0,12.0,74,0.00,,,0.00,6.000000,,2013-12-07 00:42:00,
2013-12-06 16:52:00,14.0,7.0,-100.00,ENE,65,2.0,12.0,74,0.00,,,0.00,6.000000,,2013-12-07 00:52:00,
2013-12-06 17:02:00,14.0,7.0,-100.00,ENE,65,2.0,12.0,74,0.00,,,0.00,6.000000,,2013-12-07 01:02:00,
2013-12-06 17:42:00,12.0,6.0,-100.00,SE,145,2.0,14.0,77,0.00,,,0.00,0.000000,,2013-12-07 01:42:00,
2013-12-06 17:52:00,12.0,6.0,-100.00,SE,145,2.0,14.0,77,0.00,,,0.00,0.000000,,2013-12-07 01:52:00,
2013-12-06 18:01:00,12.0,6.0,-100.00,SE,145,2.0,14.0,77,0.00,,,0.00,0.000000,,2013-12-07 02:01:00,
2013-12-06 18:42:00,11.0,5.0,-100.00,East,95,2.0,12.0,76,0.00,,,0.00,0.000000,,2013-12-07 02:42:00,
2013-12-06 18:52:00,11.0,5.0,-100.00,East,95,2.0,12.0,76,0.00,,,0.00,0.000000,,2013-12-07 02:52:00,
2013-12-06 19:02:00,11.0,5.0,-100.00,East,95,2.0,12.0,76,0.00,,,0.00,0.000000,,2013-12-07 03:02:00,
2013-12-06 19:53:00,11.0,5.0,-100.00,SSW,192,2.0,13.0,77,0.00,,,0.00,0.000000,,2013-12-07 03:53:00,
2013-12-06 20:03:00,11.0,5.0,-100.00,SSW,192,2.0,13.0,77,0.00,,,0.00,0.000000,,2013-12-07 04:03:00,
2013-12-06 20:43:00,11.0,5.0,-100.00,South,169,2.0,12.0,77,0.00,,,0.00,0.000000,,2013-12-07 04:43:00,
2013-12-06 20:53:00,11.0,5.0,-100.00,South,169,2.0,12.0,77,0.00,,,0.00,0.000000,,2013-12-07 04:53:00,
2013-12-06 21:03:00,11.0,5.0,-100.00,South,169,2.0,12.0,77,0.00,,,0.00,0.000000,,2013-12-07 05:03:00,
2013-12-06 21:43:00,11.0,4.0,-100.00,SE,126,3.0,14.0,74,0.00,,,0.00,0.000000,,2013-12-07 05:43:00,
2013-12-06 21:53:00,11.0,4.0,-100.00,SE,126,3.0,14.0,74,0.00,,,0.00,0.000000,,2013-12-07 05:53:00,
2013-12-06 22:02:00,11.0,4.0,-100.00,SE,126,3.0,14.0,74,0.00,,,0.00,0.000000,,2013-12-07 06:02:00,
2013-12-06 22:43:00,10.0,4.0,-100.00,WSW,248,2.0,13.0,75,0.00,,,0.00,0.000000,,2013-12-07 06:43:00,
2013-12-06 22:53:00,10.0,4.0,-100.00,WSW,248,2.0,13.0,75,0.00,,,0.00,0.000000,,2013-12-07 06:53:00,
2013-12-06 23:02:00,10.0,4.0,-100.00,WSW,248,2.0,13.0,75,0.00,,,0.00,0.000000,,2013-12-07 07:02:00,
2013-12-06 23:42:00,10.0,4.0,-100.00,SSW,200,2.0,11.0,75,0.00,,,0.00,0.000000,,2013-12-07 07:42:00,
2013-12-06 23:53:00,10.0,4.0,-100.00,SSW,200,2.0,11.0,75,0.00,,,0.00,0.000000,,2013-12-07 07:53:00,